Fort Myers Airport, FL

11:40 PM EDT on May 21, 2018 (GMT -0400)
Southwest Florida International

Weather History for KRSW - February, 2013

Change the Weather History Date:

Wednesday, February 6, 2013

  Actual Average Record
Temperature  
Mean Temperature 68 °F -  
Max Temperature 80 °F 75 °F 86 °F (1989)
Min Temperature 57 °F 53 °F 33 °F (1947)
Cooling Degree Days 4    
Growing Degree Days 18 (Base 50)    
Moisture  
Dew Point 57 °F    
Average Humidity 68    
Maximum Humidity 84    
Minimum Humidity 47    
Precipitation  
Precipitation 0.00 in - - ()
Sea Level Pressure  
Sea Level Pressure 30.06 in    
Wind  
Wind Speed 3 mph (SE)    
Max Wind Speed 8 mph    
Max Gust Speed -    
Visibility 10 miles    
Events      
Averages and records for this station are not official NWS values.
T = Trace of Precipitation, MM = Missing Value Source: NWS Daily Summary

Daily Weather History Graph

Daily Weather History Graph

Search for Another Location

Airport or City:

Astronomy

Feb. 06, 2013 Rise Set
Actual Time 7:08 AM EST 6:13 PM EST
Civil Twilight 6:45 AM EST 6:37 PM EST
Nautical Twilight 6:17 AM EST 7:05 PM EST
Astronomical Twilight 5:50 AM EST 7:32 PM EST
Moon 3:41 AM EST (2/6) 2:40 PM EST (2/6)
Length of Visible Light 11h 52m
Length of Day
11h 04m
Waning Crescent, 17% of the Moon is Illuminated
Feb 6
Waning Crescent
Feb 10
New
Feb 17
First Quarter
Feb 25
Full
Mar 4
Last Quarter

Hourly Weather History & Observations

Time (EST) Temp. Heat Index Dew Point Humidity Pressure Visibility Wind Dir Wind Speed Gust Speed Precip Events Conditions
12:53 AM 63.0 °F - 55.0 °F 75% 30.05 in 10.0 mi East 3.5 mph - N/A   Mostly Cloudy
1:53 AM 62.6 °F - 53.6 °F 72% 30.05 in 10.0 mi ENE 3.5 mph - N/A   Clear
2:53 AM 60.1 °F - 54.0 °F 80% 30.03 in 10.0 mi Calm Calm - N/A   Clear
3:53 AM 60.1 °F - 53.1 °F 78% 30.04 in 10.0 mi NE 4.6 mph - N/A   Clear
4:53 AM 57.9 °F - 52.0 °F 81% 30.04 in 10.0 mi Calm Calm - N/A   Clear
5:53 AM 57.9 °F - 52.0 °F 81% 30.06 in 10.0 mi Calm Calm - N/A   Clear
6:53 AM 57.9 °F - 52.0 °F 81% 30.07 in 10.0 mi Calm Calm - N/A   Clear
7:53 AM 57.9 °F - 53.1 °F 84% 30.08 in 10.0 mi East 3.5 mph - N/A   Clear
8:53 AM 66.9 °F - 53.1 °F 61% 30.10 in 10.0 mi ENE 4.6 mph - N/A   Clear
9:53 AM 73.0 °F - 55.0 °F 53% 30.12 in 10.0 mi ENE 4.6 mph - N/A   Clear
10:53 AM 75.0 °F - 55.9 °F 51% 30.12 in 10.0 mi SE 4.6 mph - N/A   Clear
11:53 AM 78.1 °F - 57.0 °F 48% 30.09 in 10.0 mi SSE 8.1 mph - N/A   Clear
1:53 PM 79.0 °F - 57.0 °F 47% 30.05 in 10.0 mi Variable 3.5 mph - N/A   Mostly Cloudy
2:53 PM 80.1 °F 80.7 °F 59.0 °F 48% 30.04 in 10.0 mi SW 4.6 mph - N/A   Mostly Cloudy
3:53 PM 78.1 °F - 61.0 °F 56% 30.03 in 10.0 mi WSW 8.1 mph - N/A   Scattered Clouds
4:53 PM 78.1 °F - 61.0 °F 56% 30.03 in 10.0 mi WNW 6.9 mph - N/A   Clear
5:53 PM 75.0 °F - 60.1 °F 60% 30.04 in 10.0 mi WSW 6.9 mph - N/A   Partly Cloudy
6:53 PM 71.1 °F - 60.1 °F 68% 30.04 in 10.0 mi SW 5.8 mph - N/A   Mostly Cloudy
7:53 PM 71.1 °F - 62.1 °F 73% 30.06 in 10.0 mi Calm Calm - N/A   Overcast
8:53 PM 72.0 °F - 62.1 °F 71% 30.07 in 10.0 mi Calm Calm - 0.00 in   Overcast
9:53 PM 70.0 °F - 64.0 °F 81% 30.08 in 10.0 mi SSE 3.5 mph - N/A   Overcast
10:53 PM 70.0 °F - 62.1 °F 76% 30.09 in 10.0 mi Calm Calm - N/A   Overcast
11:53 PM 70.0 °F - 62.1 °F 76% 30.07 in 10.0 mi Calm Calm - N/A   Overcast